User: anonymous   Login
Location: Stigler
(35.2540°N, 95.1230°W)
Time: 19:02:41
(UTC-05:00)
Language:

Cosmos 1805 - Orbit

View from above orbital plane
View from above orbital plane
View from above satellite
View from above satellite

Ground track
Ground track

The orbit data is extracted from the following two-line orbital elements,

1 17191U 86097A   15180.95320615  .00001779  00000-0  10772-3 0  9999
2 17191 082.4742 016.0617 0006757 051.1622 309.0209 15.09996016555184
Epoch (UTC): 29 June 2015 22:52:37
Eccentricity: 0.0006757
inclination: 82.4742°
perigee height: 531 km
apogee height: 541 km
right ascension of ascending node: 16.0617°
argument of perigee: 51.1622°
revolutions per day: 15.09996016
mean anomaly at epoch: 309.0209°
orbit number at epoch: 55518

The dashed part of the orbit path shows where the satellite is in the earth's shadow,  

DLR